Location: Newark
(34.1333°N, 7.9667°W)
Time: 02:38:41
(UTC+00:00)

Vanguard 3 - Visible Passes

Search period start: 04 December 2021 00:00
Search period end: 14 December 2021 00:00
Orbit: 509 x 3260 km, 33.4° (Epoch: 03 December)

Date Brightness Start Highest point End Pass type
(mag) Time Alt. Az. Time Alt. Az. Time Alt. Az.
04 Dec 10.5 02:17:43 42° SE 02:17:43 42° SE 02:32:10 10° E visible
04 Dec 10.0 04:22:17 44° SW 04:31:03 75° SSE 04:47:35 10° E visible
04 Dec 9.8 06:28:11 10° W 06:48:01 88° S 07:00:56 10° E visible
05 Dec 11.2 01:07:56 21° E 01:07:56 21° E 01:14:02 10° E visible
05 Dec 10.0 03:12:29 62° SSE 03:13:36 63° SSE 03:31:38 10° ENE visible
05 Dec 9.9 05:17:03 28° WSW 05:30:41 85° S 05:46:00 10° E visible
06 Dec 10.6 02:02:35 40° ESE 02:02:35 40° ESE 02:14:46 10° ENE visible
06 Dec 9.9 04:07:08 57° SW 04:13:00 78° SSE 04:30:28 10° E visible
06 Dec 9.8 06:11:41 13° W 06:30:21 87° S 06:44:12 10° E visible
07 Dec 11.3 00:52:35 18° E 00:52:35 18° E 00:56:36 10° E visible
07 Dec 10.0 02:57:08 65° SE 02:57:08 65° SE 03:14:14 10° ENE visible
07 Dec 9.9 05:01:40 37° W 05:12:47 87° S 05:29:02 10° E visible
08 Dec 10.7 01:47:03 36° E 01:47:03 36° E 01:57:10 10° ENE visible
08 Dec 9.8 03:51:35 70° SW 03:54:56 81° SSE 04:13:13 10° E visible
08 Dec 9.9 05:56:07 20° W 06:12:36 87° S 06:27:22 10° E visible
09 Dec 11.4 00:36:54 14° E 00:36:54 14° E 00:38:57 10° E visible
09 Dec 10.1 02:41:26 61° ESE 02:41:26 61° ESE 02:56:42 10° ENE visible
09 Dec 9.9 04:45:58 45° W 04:54:51 88° S 05:11:58 10° E visible
09 Dec 9.9 06:52:10 10° W 07:11:59 77° SSW 07:25:16 10° ESE visible
10 Dec 10.9 01:31:15 30° E 01:31:15 30° E 01:39:24 10° ENE visible
10 Dec 9.8 03:35:46 81° SSW 03:36:52 83° SSE 03:55:52 10° E visible
10 Dec 9.9 05:40:18 26° W 05:54:44 85° S 06:10:26 10° ESE visible
11 Dec 11.6 00:21:01 10° E 00:21:01 10° E 00:21:08 10° E visible
11 Dec 10.3 02:25:32 53° E 02:25:32 53° E 02:39:03 10° E visible
11 Dec 9.9 04:30:04 55° W 04:36:51 88° S 04:54:48 10° E visible
11 Dec 10.0 06:34:35 11° W 06:54:09 74° SSW 07:08:21 10° ESE visible
12 Dec 11.1 01:15:17 25° E 01:15:17 25° E 01:21:30 10° ENE visible
12 Dec 9.8 03:19:48 83° ESE 03:19:48 83° ESE 03:38:23 10° E visible
12 Dec 10.0 05:24:20 32° W 05:36:47 84° SSW 05:53:22 10° ESE visible
13 Dec 10.5 02:09:31 45° E 02:09:31 45° E 02:21:16 10° E visible
13 Dec 9.8 04:14:02 64° W 04:18:49 88° S 04:37:30 10° E visible
13 Dec 10.1 06:18:34 16° W 06:36:11 70° SSW 06:51:17 10° ESE visible
